Overview Statistics Trail Chart Weather Telemetry Raw packets
 

This is the latest recevied weather packets stored in our database for station/object CQ0XCH-11. If no packets are shown the sender has not sent any weather packets the latest 10 day(s).

<< 105 106 107 108 109 110 111 >>
Time Temp. Humidity Pressure Rain* Wind** Luminosity Snow
1777365347 25.56° C 34% 988.7 hPa 0 mm - - -
1777365090 25° C 35% 988.8 hPa 0 mm - - -
1777364846 24.44° C 37% 988.7 hPa 0 mm - - -
1777364602 23.89° C 38% 988.9 hPa 0 mm - - -
1777364461 23.89° C 38% 988.7 hPa 0 mm - - -
1777364332 23.89° C 38% 988.8 hPa 0 mm - - -
1777364097 24.44° C 37% 988.8 hPa 0 mm - - -
1777363851 23.89° C 37% 988.8 hPa 0 mm - - -
1777363714 23.89° C 38% 988.9 hPa 0 mm - - -
1777363595 23.89° C 38% 988.8 hPa 0 mm - - -
1777363468 23.89° C 38% 988.8 hPa 0 mm - - -
1777363351 23.89° C 39% 988.8 hPa 0 mm - - -
1777363221 23.33° C 40% 988.9 hPa 0 mm - - -
1777363104 23.33° C 40% 988.8 hPa 0 mm - - -
1777363010 23.33° C 40% 988.8 hPa 0 mm - - -
1777362860 23.33° C 41% 988.8 hPa 0 mm - - -
1777362729 22.78° C 41% 988.9 hPa 0 mm - - -
1777362609 22.78° C 41% 988.8 hPa 0 mm - - -
1777362476 22.78° C 41% 988.8 hPa 0 mm - - -
1777362374 22.78° C 40% 988.7 hPa 0 mm - - -
1777362235 23.33° C 40% 988.7 hPa 0 mm - - -
1777362113 23.33° C 40% 988.7 hPa 0 mm - - -
1777361997 22.78° C 40% 988.7 hPa 0 mm - - -
1777361882 23.33° C 40% 988.6 hPa 0 mm - - -
1777361738 23.33° C 40% 988.6 hPa 0 mm - - -

* Rain since midnight (hover to see other rain measurements)
** Current wind speed in m/s (hover to see current wind gust speed)